Location: La Boissière
(47.7816°N, 0.9830°W)
Time: 16:54:36
(UTC+00:00)

Daily predictions for brighter satellites

Satellite Brightness Start Highest point End
(mag) Time Altitude Azimuth Time Altitude Azimuth Time Altitude Azimuth
Cosmos 2360 Rocket 3.0 17:33:56 10° SSE 17:38:49 31° ESE 17:43:43 10° NE
Cosmos 2278 4.0 17:34:55 10° SW 17:40:35 73° WNW 17:46:19 10° NNE
SMAP 3.7 17:37:39 10° S 17:42:16 64° WSW 17:46:55 10° NNW
Cosmos 407 Rocket 3.9 17:40:30 10° SSW 17:45:37 68° WNW 17:50:44 10° NNE
Cosmos 1461 3.4 17:42:26 10° SSW 17:46:29 45° ESE 17:50:46 10° NE
Cosmos 676 Rocket 4.2 17:42:45 10° S 17:47:52 51° ESE 17:52:57 10° NNE
Cosmos 1140 Rocket 4.2 17:43:35 10° SW 17:48:39 55° WNW 17:53:44 10° NNE
Cosmos 2278 Rocket 3.9 17:45:53 10° N 17:48:48 14° NNE 17:51:42 10° ENE
Cosmos 1340 3.9 17:46:41 10° NNE 17:49:28 20° ENE 17:52:15 10° ESE
ARGOS 4.2 17:44:19 10° S 17:49:32 52° W 17:54:48 10° NNW
COSMO-SKYMED 1 3.0 17:46:11 10° NNE 17:50:18 40° E 17:54:23 10° SSE
ATLAS 5 CENTAUR R/B 3.9 17:50:03 10° NNW 17:51:45 12° N 17:53:33 10° NNE
Cosmos 2322 Rocket 2.3 17:46:47 10° S 17:52:15 56° ESE 17:57:45 10° NE
BlueWalker 3 2.9 17:49:40 10° WNW 17:53:16 36° N 17:56:49 11° ENE
CZ-4C R/B 3.9 17:50:07 10° NNE 17:53:31 31° E 17:56:46 10° SSE
Cosmos 2333 Rocket 3.1 17:49:25 10° SSE 17:54:05 27° ESE 17:58:48 10° NE
Cosmos 1633 3.2 17:55:50 10° SSE 17:58:47 30° E 18:01:45 10° NNE
Cosmos 1726 Rocket 3.6 17:57:18 10° N 18:01:32 52° ENE 18:05:45 10° SSE
SL-08 ROCKET BODY 4.3 17:55:54 10° N 18:01:49 85° E 18:07:40 10° S
Cosmos 1606 4.4 17:59:53 10° NNE 18:02:05 15° ENE 18:03:57 11° E
CZ-4 R/B 2.8 17:59:17 10° ESE 18:02:11 19° ENE 18:05:04 10° NNE
In-Cosmos 22 Rocket 4.4 18:01:04 10° S 18:06:44 57° E 18:12:26 10° NNE
Cosmos 1190 Rocket 4.4 18:02:20 10° SSW 18:07:38 71° WNW 18:12:56 10° NNE
SL-16 R/B 2.3 18:02:34 10° SSW 18:08:15 81° WNW 18:13:58 10° NNE
COSMOS 2428 4.2 18:06:09 10° SE 18:09:19 15° E 18:11:03 14° ENE
RESURS DK-1 2.3 18:05:43 10° NNW 18:09:50 67° ENE 18:13:55 10° SE
SL-4 R/B 2.1 18:06:44 10° WNW 18:10:08 46° N 18:12:47 16° ENE
Cosmos 1408 3.6 18:07:42 10° SSW 18:11:00 46° WNW 18:14:21 10° N
Cosmos 1244 Rocket 4.5 18:07:50 10° N 18:14:10 70° E 18:20:24 10° SSE
Genesis I 3.5 18:10:44 10° SSW 18:14:33 50° ESE 18:17:45 14° NE
Cosmos 1980 Rocket 4.2 18:13:23 10° W 18:17:59 25° NW 18:22:37 10° N
BREEZE M DEB (TANK) 4.5 18:14:01 10° WNW 18:18:53 33° SW 18:21:22 10° SSE
Cosmos 1943 Rocket 4.2 18:17:51 10° NNE 18:19:10 11° NNE 18:20:31 10° NE
DMSP B5D2-2 4.3 18:14:22 10° N 18:19:41 75° WNW 18:24:55 10° SSW
SL-08 R/B 4.1 18:15:48 10° N 18:20:39 56° WNW 18:25:28 10° SSW
SKYMED 3 4.5 18:17:02 10° NNE 18:21:07 57° E 18:25:12 10° S
Okean O Rocket 2.3 18:23:06 10° SE 18:26:59 32° ENE 18:30:56 10° N
Cosmos 1745 Rocket 4.2 18:21:18 10° N 18:27:17 45° ENE 18:33:11 10° SSE
Lacrosse 5 2.1 18:23:55 10° WSW 18:29:01 72° NW 18:33:04 16° NE
Cosmos 468 Rocket 4.5 18:25:01 10° NNW 18:30:08 63° WSW 18:35:10 10° S
CZ-4B R/B 4.4 18:27:30 10° S 18:31:17 39° W 18:34:53 10° NNW
IGS 5A 4.4 18:31:16 22° E 18:32:19 25° ENE 18:35:42 10° N
MOS 1-B 4.4 18:27:23 10° SSE 18:33:04 61° ENE 18:38:48 10° N
Cosmos 2322 4.4 18:28:44 10° SSE 18:33:42 32° ESE 18:37:02 18° NE
PAYLOAD B 4.1 18:30:56 10° SSE 18:36:27 81° ENE 18:41:58 10° NNW
Okean 1-7 Rocket 4.4 18:33:04 10° SSE 18:36:51 28° E 18:39:09 18° NE
SKYMED 2 4.0 18:34:12 10° N 18:38:31 66° WNW 18:42:49 10° SSW
USA 215 4.0 18:35:29 10° SSE 18:41:52 54° SW 18:48:17 10° WNW
Cosmos 2058 Rocket 3.0 18:40:10 10° N 18:44:36 83° E 18:49:01 10° S
Cosmos 1869 3.3 18:41:17 10° N 18:45:12 83° W 18:49:09 10° S
YAOGAN 1 2.4 18:40:56 10° SSE 18:45:14 79° ENE 18:49:35 10° N
Cosmos 1709 Rocket 4.3 18:39:42 10° N 18:45:28 40° ENE 18:51:10 10° SE
Meteor 1-27 4.3 18:41:27 10° NNW 18:47:16 86° W 18:52:57 10° S
Cosmos 1814 Rocket 4.2 18:45:44 10° NNW 18:50:57 49° ENE 18:54:29 20° SE
Gblst 52 Del rocket 4.3 18:46:00 10° W 18:51:35 66° NNW 18:54:30 28° ENE
Cosmos 1553 Rocket 3.9 18:45:34 10° S 18:51:40 89° E 18:57:53 10° N
Cosmos 540 Rocket 4.3 18:47:03 10° NNW 18:52:02 51° WSW 18:56:58 10° S
ATLAS 2AS CENTAUR R/B 4.1 18:46:02 10° NW 18:52:23 39° WSW 18:58:24 10° S
ATLAS CENTAUR R/B 4.0 18:51:36 10° WNW 18:54:18 15° NNW 18:56:55 10° N
PSLV R/B 3.9 18:51:08 10° S 18:54:46 71° WSW 18:58:31 10° NNW
Cosmos 1417 Rocket 4.4 18:49:00 10° S 18:55:12 71° E 19:01:22 10° NNE
Cosmos 1844 Rocket 3.9 18:51:31 10° NW 18:56:47 43° WSW 19:02:00 10° S
Cosmos 1850 Rocket 3.8 18:52:38 10° SSW 18:57:48 79° ESE 19:02:49 11° NNE
Cosmos 841 Rocket 3.7 18:53:21 10° NNW 18:58:38 75° WSW 19:03:50 10° SSE
Cosmos 1825 4.0 19:01:40 10° SW 19:04:57 30° WNW 19:08:17 10° N
Cosmos 1741 Rocket 4.0 19:01:39 10° SSW 19:06:58 88° ESE 19:12:02 12° NNE
SJ-6B 3.9 19:10:10 31° NNE 19:10:10 31° NNE 19:12:35 10° N
USA 81 4.0 19:04:25 10° S 19:09:36 61° E 19:14:48 10° NNE
CZ-4B R/B 3.3 19:04:51 10° S 19:10:12 77° WSW 19:15:43 10° NNW
Lacrosse 5 rocket 2.4 19:09:35 10° WNW 19:12:55 36° SW 19:14:37 23° S
MINOTAUR 4 R/B 4.1 19:12:58 34° N 19:14:18 70° WNW 19:17:41 10° SSW
Cosmos-2242 4.2 19:10:20 10° N 19:12:36 28° NNE 19:12:36 28° NNE
Cosmos 2208 Rocket 4.5 19:12:24 10° N 19:16:54 40° NE 19:16:54 40° NE
Cosmos 2219 Rocket 2.0 19:15:27 10° SSW 19:21:03 86° ESE 19:24:23 26° NNE
Lacrosse 4 Rocket 3.9 19:19:16 10° N 19:19:34 11° N 19:19:34 11° N
Cosmos 2360 Rocket 3.1 19:17:08 10° SW 19:22:35 48° NW 19:28:06 10° NNE
Cosmos 1340 4.5 19:21:31 10° NNW 19:24:47 31° W 19:28:03 10° SSW
S3M 4.1 19:21:40 10° S 19:28:04 82° W 19:34:29 10° N
Cosmos 1570 Rocket 4.0 19:23:25 10° NNW 19:28:46 63° ENE 19:29:08 61° E
Cosmos 44 Rocket 3.4 19:27:05 10° SW 19:31:46 71° NW 19:32:55 50° NNE
BlueWalker 3 2.7 19:28:34 10° WNW 19:31:36 45° NNW 19:31:36 45° NNW
Cosmos 2278 Rocket 2.3 19:28:41 10° NNW 19:34:05 53° NE 19:34:05 53° NE
Cosmos 2322 Rocket 3.9 19:31:47 10° WSW 19:36:38 29° NW 19:41:31 10° NNE
Cosmos 968 Rocket 3.4 19:31:36 10° S 19:36:19 64° SE 19:36:19 64° SE
CZ-4 R/B 2.4 19:32:49 10° S 19:36:46 46° W 19:40:41 10° NNW
Cosmos 1606 3.5 19:34:08 10° NNW 19:37:51 50° W 19:38:52 38° SW
Cosmos 2333 Rocket 2.8 19:32:30 10° SW 19:38:02 54° WNW 19:42:19 17° NNE
ATLAS 5 CENTAUR R/B 3.9 19:35:20 10° NNW 19:37:28 15° N 19:37:28 15° N
BREEZE-M DEB (TANK) 3.0 19:26:58 10° WSW 19:38:30 76° SSE 19:38:56 70° ESE
Cosmos 1812 Rocket 4.1 19:35:20 10° N 19:38:39 49° N 19:38:39 49° N
Resurs 01 Rocket 4.2 19:45:53 11° N 19:45:53 11° N 19:46:02 10° N
Cosmos 2369 Rocket 4.4 19:45:14 10° N 19:46:17 12° NNE 19:46:17 12° NNE
SL-4 R/B 3.3 19:45:59 10° WNW 19:48:06 34° WNW 19:48:06 34° WNW
CSL-04 Debris 4.1 19:48:17 50° S 19:49:46 82° WSW 19:55:11 10° NNW
Landsat 7 4.3 19:51:54 52° NNW 19:51:54 52° NNW 19:55:27 10° NNW
Atlas Centaur 2 4.4 19:45:43 10° SW 19:51:44 23° S 19:53:35 21° SSE
Cosmos 2315 Rocket 3.9 19:45:31 10° S 19:51:52 88° W 19:58:17 10° N
COSMOS 2428 2.6 19:47:03 10° SSW 19:52:45 89° NW 19:53:08 78° NNE
CSL-04 Rocket 3.6 19:53:48 77° S 19:54:10 84° WSW 19:59:37 10° NNW
Okean O Rocket 3.4 19:59:26 10° SSW 20:03:18 30° W 20:07:13 10° NNW
Cosmos 1943 Rocket 3.6 19:59:26 10° NNW 20:02:17 26° N 20:02:17 26° N
Lacrosse 5 3.3 20:08:06 10° WNW 20:12:17 32° NNW 20:12:17 32° NNW
Cosmos 2219 Rocket 4.3 21:01:33 10° W 21:05:45 21° NW 21:06:11 21° NW
Cosmos 2278 Rocket 4.3 21:13:19 10° NW 21:15:58 22° WNW 21:15:58 22° WNW
